User: anonymous   Login
Location: Terra Rouge Observatory
(46.0000°N, 62.7500°W)
Time: 23:40:15
(UTC-04:00)
Language:

NOSS 3-1 (A) - Orbit

View from above orbital plane
View from above orbital plane
View from above satellite
View from above satellite

Ground track
Ground track

The orbit data is extracted from the following two-line orbital elements,

1 26905U 01040A   18049.14407669 0.00000030  00000-0  34365-4 0    07
2 26905  63.4120 125.5149 0395000 358.9161   1.0838 13.40758222    01
Epoch (UTC): 18 February 2018 03:27:28
Eccentricity: 0.0395000
inclination: 63.4120°
perigee height: 811 km
apogee height: 1402 km
right ascension of ascending node: 125.5149°
argument of perigee: 358.9161°
revolutions per day: 13.40758222
mean anomaly at epoch: 1.0838°
orbit number at epoch: 0

The dashed part of the orbit path shows where the satellite is in the earth's shadow,  

DLR